ASTRA 1M

Last updated on Thu Nov 21 2024 00:02:41 GMT+0000 (Coordinated Universal Time)

1 33436U 08057A 24325.15613941 .00000121 00000+0 00000+0 0 9997 2 33436 0.0607 90.3903 0004330 112.0893 292.6038 1.00272145 39983
UTC large
Height (km)
Speed (km/s)
/
Latitude / Longitude
Inclination (degrees)
Orbital Period (minutes)
Azimuth
Elevation
Range (km)
Doppler Factor

Next 0 passes for location: London (51.5072 / 0.1276)

Sorry there are no passes over London.